• In Hungary
  • List of Countries
  • For 7 days
  • Water Temperature
  • Satellite Maps
  • Weather Map
  • News
  • Weather Widgets
  • user-avatar
    Login

    Hourly Weather Kandi

    Today, 17 October, Tuesday

    Time Temperature Precipitation Wind Pressure Humidity
    00:00 +25°C° 0 mm 0 mps 738 mmHg 27%
    01:00 +25°C° 0 mm 0 mps 738 mmHg 28%
    02:00 +24°C° 0 mm 0 mps 738 mmHg 29%
    03:00 +24°C° 0 mm 0 mps 738 mmHg 31%
    04:00 +24°C° 0 mm 0 mps 738 mmHg 31%
    05:00 +23°C° 0 mm 0 mps 738 mmHg 32%
    06:00 +23°C° 0 mm 0 mps 739 mmHg 33%
    07:00 +29°C° 0 mm 1 mps 739 mmHg 28%
    08:00 +33°C° 0 mm 1 mps 739 mmHg 23%
    09:00 +36°C° 0 mm 1 mps 740 mmHg 18%
    10:00 +39°C° 0 mm 2 mps 739 mmHg 16%
    11:00 +40°C° 0 mm 2 mps 739 mmHg 14%
    12:00 +43°C° 0 mm 3 mps 738 mmHg 12%
    13:00 +43°C° 0 mm 3 mps 737 mmHg 11%
    14:00 +43°C° 0 mm 3 mps 737 mmHg 11%
    15:00 +43°C° 0 mm 3 mps 736 mmHg 10%
    16:00 +39°C° 0 mm 2 mps 736 mmHg 12%
    17:00 +37°C° 0 mm 2 mps 736 mmHg 13%
    18:00 +33°C° 0 mm 1 mps 736 mmHg 15%
    19:00 +32°C° 0 mm 1 mps 737 mmHg 16%
    20:00 +31°C° 0 mm 1 mps 737 mmHg 16%
    21:00 +30°C° 0 mm 1 mps 738 mmHg 17%
    22:00 +29°C° 0 mm 1 mps 738 mmHg 18%
    23:00 +26°C° 0 mm 0 mps 738 mmHg 19%

    Tomorrow, 18 October, Wednesday

    Time Temperature Precipitation Wind Pressure Humidity
    00:00 +25°C° 0 mm 0 mps 738 mmHg 20%
    01:00 +25°C° 0 mm 0 mps 738 mmHg 21%
    02:00 +24°C° 0 mm 0 mps 737 mmHg 22%
    03:00 +24°C° 0 mm 0 mps 737 mmHg 22%
    04:00 +23°C° 0 mm 0 mps 737 mmHg 24%
    05:00 +23°C° 0 mm 0 mps 737 mmHg 26%
    06:00 +23°C° 0 mm 0 mps 738 mmHg 28%
    07:00 +28°C° 0 mm 1 mps 738 mmHg 26%
    08:00 +31°C° 0 mm 1 mps 739 mmHg 23%
    09:00 +36°C° 0 mm 2 mps 739 mmHg 20%
    10:00 +38°C° 0 mm 2 mps 739 mmHg 18%
    11:00 +39°C° 0 mm 2 mps 738 mmHg 16%
    12:00 +42°C° 0 mm 3 mps 737 mmHg 13%
    13:00 +42°C° 0 mm 3 mps 736 mmHg 13%
    14:00 +41°C° 0 mm 2 mps 736 mmHg 13%
    15:00 +41°C° 0 mm 2 mps 735 mmHg 13%
    16:00 +38°C° 0 mm 2 mps 735 mmHg 16%
    17:00 +35°C° 0 mm 1 mps 735 mmHg 19%
    18:00 +33°C° 0 mm 1 mps 735 mmHg 22%
    19:00 +32°C° 0 mm 1 mps 736 mmHg 24%
    20:00 +31°C° 0 mm 1 mps 737 mmHg 26%
    21:00 +30°C° 0 mm 1 mps 737 mmHg 28%
    22:00 +30°C° 0 mm 1 mps 737 mmHg 30%
    23:00 +29°C° 0 mm 1 mps 737 mmHg 33%

    Day after tomorrow, 19 October, Thursday

    Time Temperature Precipitation Wind Pressure Humidity
    00:00 +28°C° 0 mm 1 mps 737 mmHg 36%
    01:00 +28°C° 0 mm 1 mps 737 mmHg 42%
    02:00 +27°C° 0 mm 1 mps 737 mmHg 48%
    03:00 +26°C° 0 mm 1 mps 736 mmHg 54%
    04:00 +26°C° 0 mm 1 mps 737 mmHg 61%
    05:00 +25°C° 0 mm 1 mps 737 mmHg 69%
    06:00 +25°C° 0 mm 1 mps 738 mmHg 77%
    07:00 +28°C° 0 mm 2 mps 738 mmHg 68%
    08:00 +30°C° 0 mm 2 mps 739 mmHg 60%
    09:00 +34°C° 0 mm 3 mps 739 mmHg 52%
    10:00 +37°C° 0 mm 2 mps 739 mmHg 41%
    11:00 +40°C° 0 mm 1 mps 738 mmHg 31%
    12:00 +43°C° 0 mm 1 mps 738 mmHg 21%
    13:00 +43°C° 0 mm 1 mps 737 mmHg 19%
    14:00 +42°C° 0 mm 1 mps 736 mmHg 18%
    15:00 +41°C° 0 mm 2 mps 735 mmHg 16%
    16:00 +39°C° 0 mm 2 mps 735 mmHg 19%
    17:00 +36°C° 0 mm 1 mps 735 mmHg 21%
    18:00 +33°C° 0 mm 1 mps 735 mmHg 23%
    19:00 +32°C° 0 mm 1 mps 736 mmHg 25%
    20:00 +31°C° 0 mm 1 mps 737 mmHg 26%
    21:00 +30°C° 0 mm 1 mps 737 mmHg 28%
    22:00 +30°C° 0 mm 1 mps 737 mmHg 31%
    23:00 +29°C° 0 mm 1 mps 737 mmHg 33%

    20 October, Friday

    Time Temperature Precipitation Wind Pressure Humidity
    00:00 +28°C° 0 mm 1 mps 737 mmHg 36%
    01:00 +28°C° 0 mm 1 mps 737 mmHg 44%
    02:00 +27°C° 0 mm 2 mps 737 mmHg 51%
    03:00 +27°C° 0 mm 2 mps 736 mmHg 59%
    04:00 +26°C° 0 mm 1 mps 737 mmHg 66%
    05:00 +26°C° 0 mm 1 mps 737 mmHg 73%
    06:00 +25°C° 0 mm 1 mps 737 mmHg 79%
    07:00 +28°C° 0 mm 1 mps 738 mmHg 69%
    08:00 +31°C° 0 mm 1 mps 738 mmHg 58%
    09:00 +35°C° 0 mm 2 mps 739 mmHg 48%
    10:00 +37°C° 0 mm 1 mps 738 mmHg 38%
    11:00 +40°C° 0 mm 1 mps 737 mmHg 28%
    12:00 +43°C° 0 mm 1 mps 737 mmHg 18%
    13:00 +43°C° 0 mm 1 mps 736 mmHg 17%
    14:00 +42°C° 0 mm 2 mps 735 mmHg 16%
    15:00 +42°C° 0 mm 2 mps 735 mmHg 15%
    16:00 +40°C° 0 mm 1 mps 735 mmHg 18%
    17:00 +36°C° 0 mm 1 mps 735 mmHg 21%
    18:00 +34°C° 0 mm 1 mps 735 mmHg 24%
    19:00 +33°C° 0 mm 1 mps 736 mmHg 26%
    20:00 +32°C° 0 mm 1 mps 737 mmHg 28%
    21:00 +31°C° 0 mm 1 mps 737 mmHg 30%
    22:00 +31°C° 0 mm 1 mps 737 mmHg 33%
    23:00 +30°C° 0 mm 1 mps 737 mmHg 36%

    21 October, Saturday

    Time Temperature Precipitation Wind Pressure Humidity
    00:00 +30°C° 0 mm 1 mps 737 mmHg 39%
    01:00 +29°C° 0 mm 1 mps 737 mmHg 43%
    02:00 +29°C° 0 mm 1 mps 737 mmHg 48%
    03:00 +29°C° 0 mm 1 mps 737 mmHg 52%
    04:00 +28°C° 0 mm 1 mps 737 mmHg 56%
    05:00 +28°C° 0 mm 1 mps 737 mmHg 60%
    06:00 +27°C° 0 mm 1 mps 738 mmHg 64%
    07:00 +30°C° 0 mm 1 mps 738 mmHg 59%
    08:00 +32°C° 0 mm 1 mps 738 mmHg 53%
    09:00 +36°C° 0 mm 2 mps 739 mmHg 48%
    10:00 +39°C° 0 mm 1 mps 738 mmHg 39%
    11:00 +42°C° 0 mm 1 mps 737 mmHg 30%
    12:00 +45°C° 0 mm 1 mps 737 mmHg 20%
    13:00 +44°C° 0 mm 1 mps 736 mmHg 20%
    14:00 +43°C° 0 mm 1 mps 735 mmHg 19%
    15:00 +43°C° 0 mm 1 mps 734 mmHg 18%
    16:00 +40°C° 0 mm 1 mps 735 mmHg 20%
    17:00 +37°C° 0 mm 1 mps 735 mmHg 23%
    18:00 +35°C° 0 mm 1 mps 735 mmHg 26%
    19:00 +34°C° 0 mm 1 mps 736 mmHg 28%
    20:00 +33°C° 0 mm 1 mps 736 mmHg 30%
    21:00 +32°C° 0 mm 1 mps 737 mmHg 33%
    22:00 +31°C° 0 mm 1 mps 736 mmHg 36%
    23:00 +31°C° 0 mm 1 mps 736 mmHg 39%

    22 October, Sunday

    Time Temperature Precipitation Wind Pressure Humidity
    00:00 +30°C° 0 mm 1 mps 736 mmHg 42%
    01:00 +30°C° 0 mm 1 mps 736 mmHg 47%
    02:00 +29°C° 0 mm 1 mps 736 mmHg 52%
    03:00 +28°C° 0 mm 1 mps 736 mmHg 58%
    04:00 +28°C° 0 mm 1 mps 736 mmHg 63%
    05:00 +28°C° 0 mm 1 mps 737 mmHg 69%
    06:00 +27°C° 0 mm 1 mps 737 mmHg 74%
    07:00 +30°C° 0 mm 1 mps 737 mmHg 66%
    08:00 +32°C° 0 mm 2 mps 738 mmHg 58%
    09:00 +36°C° 0 mm 2 mps 738 mmHg 49%
    10:00 +39°C° 0 mm 1 mps 737 mmHg 39%
    11:00 +43°C° 0 mm 1 mps 737 mmHg 29%
    12:00 +43°C° 0 mm 0 mps 736 mmHg 19%
    13:00 +42°C° 0 mm 0 mps 736 mmHg 18%
    14:00 +44°C° 0 mm 1 mps 735 mmHg 17%
    15:00 +43°C° 0 mm 1 mps 734 mmHg 16%
    16:00 +41°C° 0 mm 1 mps 734 mmHg 19%
    17:00 +39°C° 0 mm 1 mps 735 mmHg 22%
    18:00 +35°C° 0 mm 1 mps 735 mmHg 24%
    19:00 +34°C° 0 mm 1 mps 735 mmHg 28%
    20:00 +33°C° 0 mm 1 mps 736 mmHg 31%
    21:00 +32°C° 0 mm 1 mps 736 mmHg 35%
    22:00 +32°C° 0 mm 1 mps 736 mmHg 39%
    23:00 +31°C° 0 mm 2 mps 736 mmHg 44%
    Show more